Home > Time Zones > World Clock > Weather > France > Lens > Past weeks

Flag for France Weather past 2 weeks in Lens, France

Now
57 °F

Clear.


Feels Like: 57 °F
Forecast: 42 / 68 °F
Wind: 3 mph from North

Location: Lille Airport


UV Index: 0 (Low)

Visibility: 10 mi


Pressure: 29.68 "Hg

Humidity: 48%

Dew point: 37 °F

Location of LensLocation

Historic Weather in Lens

°F

Lens temperature yesterday

Maximum temperature yesterday: 64 °F (at 5:00 PM)
Minimum temperature yesterday: 52 °F (at 12:00 AM)
Average temperature yesterday: 57 °F

Past Weeks' High & Low Weather Summary

 TemperatureHumidityPressure
High72 °F (Apr 7, 4:00 PM)100% (Apr 9, 3:30 AM)30.42 "Hg (Apr 9, 3:30 AM)
Low37 °F (Apr 15, 4:00 AM)28% (Apr 17, 6:00 PM)29.62 "Hg (Apr 20, 2:00 PM)
Average52 °F66%30.10 "Hg
* Reported Midnight between Apr 5 and Apr 6 — Midnight between Apr 20 and Apr 21, Lens, Weather by CustomWeather, © 2014

Note: Actual official high and low records may vary slightly from our data, if they occured in-between our weather recording intervals... More about our weather records

Advertising

Historic Weather Conditions — Data for Previous 24 hours

 ConditionsComfort  
Time TempWeatherWind HumidityBarometerVisibility
12:00 AM
Apr 21
57 °FClear.3 mph48%29.68 "Hg10 mi
11:00 PM
Apr 20
55 °FClear.No wind47%29.68 "Hg10 mi
10:30 PM55 °FClear.No wind47%29.68 "Hg10 mi
10:00 PM55 °FClear.No wind44%29.68 "Hg10 mi
9:30 PM57 °FSunny.3 mph41%29.65 "Hg10 mi
9:00 PM59 °FSunny.3 mph42%29.65 "Hg10 mi
8:00 PM63 °FSunny.7 mph34%29.65 "Hg10 mi
7:30 PM63 °FSunny.8 mph34%29.62 "Hg10 mi
7:00 PM64 °FSunny.9 mph40%29.62 "Hg10 mi
6:30 PM64 °FPassing clouds.10 mph43%29.62 "HgN/A
6:00 PM63 °FPartly sunny.10 mph45%29.62 "HgN/A
5:30 PM64 °FPartly sunny.12 mph43%29.62 "HgN/A
5:00 PM64 °FBroken clouds.13 mph49%29.62 "HgN/A
4:30 PM63 °FBroken clouds.16 mph52%29.62 "HgN/A
4:00 PM61 °FBroken clouds.12 mph55%29.62 "HgN/A
3:30 PM61 °FBroken clouds.12 mph55%29.62 "HgN/A
3:00 PM63 °FBroken clouds.14 mph56%29.62 "HgN/A
2:30 PM63 °FBroken clouds.14 mph59%29.62 "HgN/A
2:00 PM61 °FBroken clouds.12 mph63%29.62 "HgN/A
1:30 PM59 °FBroken clouds.8 mph68%29.65 "HgN/A
1:00 PM59 °FBroken clouds.9 mph68%29.65 "HgN/A
12:30 PM61 °FPartly sunny.9 mph63%29.65 "HgN/A
12:00 PM59 °FOvercast.9 mph68%29.65 "Hg6 mi
11:30 AM57 °FLight rain. More clouds than sun.8 mph77%29.65 "Hg5 mi
11:00 AM55 °FLight rain. More clouds than sun.8 mph82%29.68 "Hg5 mi
10:30 AM55 °FLight rain. More clouds than sun.8 mph82%29.68 "Hg5 mi
10:00 AM54 °FLight rain. Clear.8 mph82%29.68 "Hg5 mi
9:30 AM54 °FClear.8 mph77%29.68 "Hg6 mi
9:00 AM54 °FClear.9 mph77%29.68 "Hg6 mi
8:30 AM54 °FClear.10 mph77%29.68 "Hg6 mi
7:30 AM52 °FClear.9 mph77%29.71 "Hg6 mi
7:00 AM52 °FClear.9 mph77%29.71 "Hg10 mi
6:30 AM52 °FClear.9 mph77%29.71 "Hg10 mi
6:08 AM52 °FClear.12 mph77%29.71 "Hg10 mi
5:30 AM54 °FClear.13 mph72%29.71 "Hg10 mi
5:00 AM54 °FClear.12 mph72%29.74 "Hg10 mi
4:30 AM54 °FClear.13 mph72%29.74 "HgN/A
4:00 AM54 °FClear.13 mph67%29.74 "HgN/A
3:30 AM55 °FClear.13 mph63%29.77 "HgN/A
3:00 AM54 °FClear.10 mph67%29.77 "HgN/A
2:30 AM54 °FClear.9 mph67%29.80 "HgN/A
2:00 AM54 °FClear.12 mph67%29.80 "Hg10 mi
1:30 AM54 °FClear.10 mph63%29.80 "Hg10 mi
1:00 AM54 °FClear.13 mph63%29.83 "Hg10 mi
Weather by CustomWeather, © 2014

See weather overview